Location: Peebles
(55.6412°N, 3.1714°W)
Time: 15:18:31
(UTC+01:00)

ARGOS - Pass Details

Date: 26 September 2021
Orbit: 821 x 834 km, 98.4° (Epoch: 17 October)

Event Time Altitude Azimuth Distance (km) Brightness Sun altitude
Rises 19:43:36 0° 172° (S) 3,344 6.1 -6.9°
Reaches altitude 10° 19:45:58 10° 175° (S) 2,416 5.5 -7.2°
Maximum altitude 19:51:17 65° 257° (WSW) 903 3.7 -8.0°
Drops below altitude 10° 19:56:40 10° 340° (NNW) 2,440 6.0 -8.7°
Sets 19:59:03 0° 343° (NNW) 3,379 6.7 -9.0°
